Terminal Aerodrome Forecast
Issued by NWS

Home | Current Version | Previous Version | Text Only | Print | Product List | Glossary On
Versions: 1 2 3 4 5 6 7 8 9 10 11 12
419
FTUS45 KVEF 260520
TAFDAG
TAF
KDAG 260520Z 2606/2706 24015KT P6SM SKC
     FM260900 25015G25KT P6SM SKC
     FM261900 27025G35KT P6SM SKC=

USA.gov is the U.S. government's official web portal to all federal, state and local government web resources and services.